This demonstration page uses our WeatherBlox Daily Observations layout. Learn more.

Left ArrowRight Arrow

39.01783, -85.05884

Hourly Observations for February 6, 2021

Temp ( °F °C ) Dew Point ( °F °C ) Humidity (%) Winds ( mph kmh ) Pressure ( in mb ) Visibility ( mi km ) Precip ( " mm )
12:52 am 00:52 Cloudy 33 0.6 24 -4.4 70 70 W 16 26 29.92 1013 10 16 0.00 0.00
1:52 am 01:52 Cloudy with Light Snow 31 -0.6 24 -4.4 76 76 W 12 19 29.94 1014 6 10 0.00 0.00
2:52 am 02:52 Cloudy with Light Snow 29 -1.7 21 -6.1 72 72 NW 10 17 29.96 1015 7 11 0.00 0.00
3:19 am 03:19 Cloudy 29 -1.7 18 -7.8 63 63 WNW 10 17 30.01 1016 10 16 0.00 0.00
3:49 am 03:49 Cloudy 28 -2 16 -9 59 59 NW 13 20 30.01 1016 10 16 0.00 0.00
3:52 am 03:52 Cloudy 28 -2.2 16 -8.9 60 60 NW 12 19 29.98 1015 10 16 0.00 0.00
4:52 am 04:52 Cloudy 25 -3.9 13 -10.6 60 60 WNW 10 17 30.01 1016 10 16 0.00 0.00
5:52 am 05:52 Mostly Cloudy 23 -5 13 -10.6 65 65 NW 7 11 30.04 1017 10 16 0.00 0.00
6:52 am 06:52 Partly Cloudy 22 -5.6 10 -12.2 60 60 WNW 9 15 30.06 1018 10 16 0.00 0.00
7:52 am 07:52 Mostly Sunny 20 -6.7 10 -12.2 65 65 WNW 9 15 30.10 1019 10 16 0.00 0.00
8:52 am 08:52 Mostly Sunny 22 -5.6 11 -11.7 63 63 WNW 6 9 30.14 1021 10 16 0.00 0.00
9:52 am 09:52 Mostly Sunny 25 -3.9 11 -11.7 55 55 N 3 6 30.14 1021 10 16 0.00 0.00
10:52 am 10:52 Mostly Sunny 27 -2.8 10 -12.2 49 49 NW 5 7 30.15 1021 10 16 0.00 0.00
11:52 am 11:52 Partly Cloudy 29 -1.7 11 -11.7 47 47 WSW 3 6 30.16 1021 10 16 0.00 0.00
12:52 pm 12:52 Partly Cloudy 30 -1.1 12 -11.1 47 47 VRB 5 7 30.12 1020 10 16 0.00 0.00
1:52 pm 13:52 Partly Cloudy 34 1.1 12 -11.1 40 40 NNW 3 6 30.09 1019 10 16 0.00 0.00
2:52 pm 14:52 Partly Cloudy 33 0.6 10 -12.2 38 38 Calm 30.08 1019 10 16 0.00 0.00
3:52 pm 15:52 Mostly Cloudy 37 2.8 11 -11.7 34 34 VRB 3 6 30.06 1018 10 16 0.00 0.00
4:52 pm 16:52 Partly Cloudy 37 2.8 11 -11.7 34 34 Calm 30.06 1018 10 16 0.00 0.00
5:52 pm 17:52 Partly Cloudy 34 1.1 15 -9.4 46 46 NNE 7 11 30.04 1017 10 16 0.00 0.00
6:52 pm 18:52 Partly Cloudy 32 0 14 -10 47 47 E 6 9 30.01 1016 10 16 0.00 0.00
7:52 pm 19:52 Mostly Clear 31 -0.6 13 -10.6 47 47 NNE 6 9 29.99 1016 10 16 0.00 0.00
8:52 pm 20:52 Clear 29 -1.7 15 -9.4 56 56 NNW 7 11 30.00 1016 10 16 0.00 0.00
9:52 pm 21:52 Cloudy 29 -1.7 15 -9.4 56 56 N 5 7 30.00 1016 10 16 0.00 0.00
10:52 pm 22:52 Cloudy 29 -1.7 15 -9.4 56 56 NW 7 11 30.01 1016 10 16 0.00 0.00
11:52 pm 23:52 Cloudy 28 -2.2 16 -8.9 60 60 NNW 12 19 30.00 1016 10 16 0.00 0.00

Powered by AerisWeather